Location: Rooftop Observatory
(39.0308°N, 87.1711°W)
Time: 19:36:50
(UTC-05:00)

Daily predictions for brighter satellites

Satellite Brightness Start Highest point End
(mag) Time Altitude Azimuth Time Altitude Azimuth Time Altitude Azimuth
Cosmos 2333 Rocket 2.8 20:23:02 10° SSW 20:28:37 64° WNW 20:34:15 10° NNE
Cosmos 2251 Rocket 3.6 20:24:34 10° S 20:29:48 66° ESE 20:35:07 10° NNE
Cosmos 2297 4.1 20:27:03 10° NNW 20:32:39 53° ENE 20:38:13 10° SE
deb Chang Zheng 4 4.1 20:28:56 10° NNE 20:33:06 40° E 20:37:12 10° S
Milstar 3 Cent rocket 3.8 20:26:33 10° WSW 20:34:10 30° SSW 20:38:56 10° SE
Cosmos 1844 Rocket 4.2 20:31:36 10° NW 20:36:42 36° WSW 20:41:46 10° S
CZ-2C R/B 0.8 20:37:03 10° SSE 20:39:17 46° ENE 20:41:32 10° N
H-2A R/B 2.9 20:36:18 10° S 20:40:14 81° WSW 20:44:14 10° NNW
ERS-1 Rocket 3.1 20:38:29 10° SSE 20:43:24 62° ENE 20:48:23 10° N
BREEZE-M DEB (TANK) 3.4 20:37:09 10° SW 20:43:42 41° SSE 20:46:16 10° ENE
Envisat 3.9 20:40:10 10° SE 20:44:39 33° ENE 20:49:09 10° N
FENGYUN 3A 3.9 20:40:25 10° S 20:45:46 76° WSW 20:51:11 10° NNW
Cosmos 1110 Rocket 4.1 20:41:29 10° NNW 20:46:48 71° ENE 20:52:01 10° SSE
Cosmos 1606 Rocket 3.6 20:42:27 10° N 20:46:56 84° E 20:51:19 10° S
USA 234 4.1 20:44:17 10° E 20:50:21 42° NNE 20:56:25 10° NW
H-2A R/B 2.1 20:48:59 10° SSE 20:53:08 63° ENE 20:57:25 10° N
Abrixas rocket 3.1 20:57:26 10° NW 21:00:45 44° NNE 21:03:38 13° E
ATLAS CENTAUR R/B 3.4 20:57:15 10° WSW 21:01:55 41° NW 21:06:42 10° NNE
Cosmos 1626 Rocket 4.2 20:58:06 10° SSE 21:02:09 36° E 21:06:12 10° NNE
Cosmos 2237 Rocket 4.0 21:00:08 10° SW 21:05:15 35° WNW 21:10:24 10° N
SJ-11-01 4.3 21:02:55 10° SSE 21:07:35 85° W 21:12:17 10° NNW
Atlas Centaur 2 3.7 21:04:21 10° SW 21:11:02 33° SSE 21:18:15 10° ESE
Cosmos 2278 Rocket 3.6 21:08:42 10° NW 21:13:48 35° WSW 21:18:53 10° SSW
Meteor 1-15 Rocket 4.2 21:11:20 10° N 21:16:56 78° E 21:22:13 12° SSE
Cosmos 2228 3.0 21:13:20 10° N 21:17:46 77° E 21:21:31 14° SSE
Cosmos 494 Rocket 4.3 21:14:04 10° SSW 21:19:09 68° WNW 21:24:16 10° NNE
Cosmos 1891 Rocket 4.4 21:13:05 10° N 21:19:14 71° E 21:24:39 13° SSE
PSLV R/B 3.7 21:16:24 10° SW 21:19:47 43° SSE 21:22:27 15° E
USA 186 4.5 21:18:47 10° SW 21:20:28 14° W 21:22:06 10° WNW
Aureole 2 Rocket 2.6 21:16:40 10° SSW 21:20:42 88° WNW 21:24:24 10° NNE
H-2A R/B 4.0 21:19:29 10° E 21:21:45 13° ENE 21:24:02 10° NNE
COSMOS 2455 3.3 21:16:24 10° S 21:21:51 37° ESE 21:27:19 10° NE
Cosmos 1939 Rocket 3.0 21:18:34 13° S 21:22:18 83° WSW 21:26:29 10° NNW
Cosmos 2369 Rocket 3.8 21:23:47 10° N 21:28:03 21° NE 21:31:20 13° E
SPOT 1/Viking Rocket 4.1 21:26:44 21° SE 21:29:48 41° ENE 21:34:38 10° N
SPOT 5 2.6 21:26:56 18° SSE 21:30:10 78° ENE 21:34:32 10° N
Cosmos 1666 2.9 21:27:58 10° NNW 21:31:52 72° W 21:34:49 17° S
SL-16 R/B 3.3 21:26:45 10° SW 21:32:11 47° WNW 21:37:39 10° NNE
ARGOS 4.0 21:29:23 20° ESE 21:32:25 36° ENE 21:37:20 10° N
CZ-4 SHROUD 3.4 21:34:31 24° S 21:36:15 70° WSW 21:39:25 10° NNW
Lacrosse 5 rocket 3.9 21:33:07 10° W 21:36:16 23° NW 21:39:32 10° NNE
Tsikada Rocket 4.0 21:34:39 10° S 21:41:04 82° E 21:47:29 10° N
NAVSTAR 52 R/B(PAM-D 4.3 21:37:59 10° W 21:42:31 87° S 21:43:49 34° E
DEBRIS 2.1 21:40:22 10° WNW 21:44:49 70° SW 21:45:19 50° SSE
Cosmos 1302 Rocket 4.5 21:46:52 10° NNW 21:52:00 57° WSW 21:55:30 20° S
MetOp-B 4.1 21:49:01 23° SSE 21:52:27 86° WSW 21:57:50 10° NNW
Lacrosse 4 Rocket 3.5 21:55:02 13° ENE 21:55:02 13° ENE 21:55:48 10° ENE
SeaSat 1 2.8 21:50:09 23° S 21:53:09 61° WSW 21:58:03 10° NNW
SL-08 RB Rocket 4.1 21:55:15 33° ESE 21:56:47 47° ENE 22:01:08 10° N
Terra 3.1 21:56:20 22° E 21:57:37 25° ENE 22:01:30 10° NNE
CZ-4B R/B 3.5 21:53:59 10° NNE 21:59:04 85° WNW 22:03:35 14° SSW
Cosmos 1515 3.6 21:58:52 43° SSE 22:00:01 72° E 22:03:52 10° NNE
Cosmos 1066 Rocket 4.4 21:57:30 30° SSE 22:00:03 52° E 22:05:38 10° NNE
Cosmos 1603 3.9 21:55:18 10° SSW 22:00:54 71° WNW 22:06:31 10° NNE
Cosmos 1346 Rocket 3.6 22:03:05 32° E 22:03:05 32° E 22:06:22 10° NNE
Cosmos 1461 3.2 22:05:53 10° NW 22:10:04 55° WSW 22:11:08 41° SSW
Cosmos 1825 Rocket 3.5 22:10:25 45° SSE 22:11:39 70° E 22:16:06 10° NNE
Cosmos 1812 Rocket 4.3 22:13:45 10° NNW 22:17:58 48° W 22:19:55 28° SSW
ATLAS 3B R/B 2.9 22:16:52 17° S 22:22:58 59° ESE 22:30:24 10° NE
Cosmos 1634 Rocket 3.9 22:19:11 10° N 22:25:23 86° E 22:27:54 39° S
YAOGAN 6 3.7 22:24:55 33° SW 22:25:48 39° W 22:29:20 10° NNW
Cosmos 1943 3.1 22:23:34 30° SSW 22:26:26 77° ESE 22:32:09 10° NNE
Cosmos 407 Rocket 3.6 22:27:23 50° SE 22:28:14 56° ESE 22:33:22 10° NNE
USA 234 3.4 22:30:35 38° SSE 22:33:08 62° SW 22:39:39 10° NW
USA 81 4.3 22:31:15 10° N 22:36:30 66° W 22:38:24 39° SSW
Abrixas rocket 4.3 22:34:50 10° W 22:36:37 21° WSW 22:36:37 21° WSW
Cosmos 1943 Rocket 3.3 22:36:01 10° N 22:40:54 31° ENE 22:42:15 28° E
Cosmos 1766 3.6 22:38:40 10° N 22:42:13 56° NE 22:42:13 56° NE
Cosmos 489 Rocket 4.4 22:42:47 40° S 22:45:15 80° ESE 22:51:39 10° NNE
Cosmos 1954 Rocket 4.4 22:47:02 46° E 22:47:02 46° E 22:51:51 10° NNE
Cosmos 2279 Rocket 3.9 22:44:52 10° N 22:51:09 79° E 22:52:42 53° SSE
CZ-4C R/B 4.1 22:51:16 44° WSW 22:51:41 46° W 22:55:43 10° NNW
USA 238 DEB 4.2 22:55:17 40° ESE 22:55:17 40° ESE 23:01:43 10° NE
USA 238 4.2 22:55:26 40° ESE 22:55:26 40° ESE 23:01:47 10° NE
SAR-Lupe-2 4.4 22:56:08 49° NW 22:56:08 49° NW 22:59:01 10° NNW
Cosmos 1953 Rocket 4.3 22:55:36 43° WSW 22:56:25 49° W 23:00:43 10° N
Atlas Centaur 2 3.2 22:52:28 10° WSW 23:00:14 46° S 23:00:56 46° SSE
H-2A R/B 1.9 22:59:58 65° SW 23:00:30 71° WSW 23:05:32 10° NNW
Cosmos 1932 4.4 23:06:32 57° ESE 23:06:35 57° ESE 23:12:39 10° NE
Cosmos 2180 Rocket 4.4 23:00:34 10° N 23:06:52 88° E 23:08:10 60° S
COSMOS 2455 4.3 23:02:20 10° WSW 23:07:46 35° NW 23:13:15 10° NNE
Cosmos 2369 Rocket 2.4 23:06:55 10° NNW 23:12:28 56° WSW 23:13:08 53° SW
IGS 5A 4.1 23:13:13 52° WNW 23:13:13 52° WNW 23:16:51 10° NNW
Spot 4 3.9 23:14:25 67° WSW 23:14:25 67° WSW 23:19:11 10° NNW
Cosmos 1953 3.1 23:10:37 10° N 23:13:33 47° N 23:13:33 47° N
Cosmos 1805 4.4 23:14:53 10° N 23:17:37 41° NNE 23:17:37 41° NNE
Cosmos-2242 3.4 23:18:11 10° NNW 23:21:58 61° NW 23:21:58 61° NW
Lacrosse 4 Rocket 2.7 23:31:19 34° WNW 23:31:28 34° WNW 23:35:14 10° N
COSMOS 2406 3.2 23:32:43 66° E 23:32:43 66° E 23:38:00 10° NNE
Terra 3.0 23:35:13 32° W 23:35:13 32° W 23:39:28 10° NNW
ALOS 2 4.1 23:41:59 29° NE 23:41:59 29° NE 23:45:03 10° N
Cosmos 1140 Rocket 3.6 23:49:34 71° NW 23:49:34 71° NW 23:54:37 10° NNE
Cosmos 1092 Rocket 3.9 23:52:56 74° SW 23:53:30 82° W 23:59:50 10° N
